Simultaneous Nadir Overpasses (SNOs) Predictions

Prediction of SNOs between AQUA and NOAA-19 Satellite Orbit:

Table of predicted SNOs for the next 14.0 days since TLE Epoch: 3/15/2019
Index Date (AQUA) Time (AQUA) Lat,Lon (AQUA) SZA (AQUA ) Date (NOAA-19) Time (NOAA-19) Lat,Lon (NOAA-19) SZA (NOAA-19 ) Distance(km) Time Diff (sec)
1 03/16/2019 17:37:21 -80.52, 60.38 95.92 03/16/2019 17:36:53 -80.52, 60.52 95.92 2.49 28
2 03/16/2019 18:26:48 80.55,-132.23 84.12 03/16/2019 18:27:52 80.52,-132.11 84.06 3.31 64
3 03/18/2019 23:11:06 80.52, 156.97 83.19 03/18/2019 23:10:21 80.50, 156.92 83.20 1.86 45
4 03/19/2019 00:00:33 -80.52, -35.41 96.83 03/19/2019 00:01:21 -80.52, -35.47 96.84 1.06 48
5 03/21/2019 04:44:51 -80.50,-106.24 97.75 03/21/2019 04:43:49 -80.51,-106.30 97.71 1.56 62
6 03/21/2019 05:34:18 80.52, 61.14 82.29 03/21/2019 05:34:49 80.51, 61.10 82.27 1.20 31
7 03/23/2019 11:08:03 -80.50, 157.90 98.65 03/23/2019 11:08:16 -80.52, 158.00 98.65 2.86 13
8 03/25/2019 16:41:48 80.51,-105.60 80.48 03/25/2019 16:41:45 80.51,-105.45 80.47 2.87 3
9 03/27/2019 22:15:32 -80.50, -8.92 100.44 03/27/2019 22:15:11 -80.50, -8.97 100.42 1.16 21




NCC Satellite Simultaneous Nadir Overpasses (SNOs) Prediction Service
